Weather History for Memphis, TN

Change the Weather History Date:

Wednesday, February 6, 2013

  Actual Average Record
Temperature  
Mean Temperature 51 °F 43 °F  
Max Temperature 62 °F 52 °F 73 °F (1928)
Min Temperature 40 °F 34 °F 11 °F (1988)
Degree Days  
Heating Degree Days 14 22  
Month to date heating degree days 120 133  
Since 1 July heating degree days 1771 2035  
Cooling Degree Days 0 0  
Month to date cooling degree days 0 0  
Year to date cooling degree days 9 1  
Growing Degree Days 4 (Base 50)    
Moisture  
Dew Point 41 °F    
Average Humidity 68    
Maximum Humidity 93    
Minimum Humidity 43    
Precipitation  
Precipitation 0.00 in 0.15 in 2.41 in (1884)
Month to date precipitation 0.07 0.92  
Year to date precipitation 9.79 4.90  
Snow  
Snow 0.00 in 0.10 in 3.70 in (2002)
Month to date snowfall 0.0 0.4  
Since 1 July snowfall 0.9 2.5  
Snow Depth 0.00 in    
Sea Level Pressure  
Sea Level Pressure 30.12 in    
Wind  
Wind Speed 7 mph (ENE)    
Max Wind Speed 14 mph    
Max Gust Speed 18 mph    
Visibility 7 miles    
Events Fog    
T = Trace of Precipitation, MM = Missing Value Source: NWS Daily Summary

Daily Weather History Graph

Daily Weather History Graph

Search for Another Location

Airport:

Trip Planner

Search our weather history database for the weather conditions in past years. The results will help you decide how hot, cold, wet, or windy it might be!

Date:

Astronomy

Feb. 06, 2013 Rise Set
Actual Time 6:54 AM CST 5:34 PM CST
Civil Twilight 6:28 AM CST 6:00 PM CST
Nautical Twilight 5:58 AM CST 6:30 PM CST
Astronomical Twilight 5:28 AM CST 7:00 PM CST
Moon 3:33 AM CST (2/6) 1:56 PM CST (2/6)
Length of Visible Light 11h 32m
Length of Day
10h 39m
Waning Crescent, 17% of the Moon is Illuminated
Feb 6
Waning Crescent
Feb 10
New
Feb 17
First Quarter
Feb 25
Full
Mar 4
Last Quarter

Hourly Weather History & Observations

Time (CST) Temp. Windchill Dew Point Humidity Pressure Visibility Wind Dir Wind Speed Gust Speed Precip Events Conditions
1:54 AM 42.1 °F - 39.0 °F 89% 30.08 in 10.0 mi Calm Calm - N/A   Clear
2:29 AM 41.0 °F - 39.2 °F 93% 30.09 in 10.0 mi Calm Calm - N/A   Partly Cloudy
2:54 AM 41.0 °F 38.0 °F 39.0 °F 93% 30.10 in 9.0 mi North 4.6 mph - N/A   Clear
3:54 AM 46.0 °F 43.9 °F 42.1 °F 86% 30.11 in 6.0 mi Variable 4.6 mph - N/A   Clear
4:54 AM 44.1 °F 40.8 °F 41.0 °F 89% 30.13 in 3.0 mi ENE 5.8 mph - N/A   Partly Cloudy
5:05 AM 44.6 °F 40.2 °F 42.8 °F 93% 30.13 in 3.0 mi ENE 8.1 mph - N/A   Mostly Cloudy
5:17 AM 44.6 °F 39.7 °F 42.8 °F 93% 30.14 in 2.5 mi ENE 9.2 mph - N/A   Overcast
5:24 AM 44.6 °F 38.8 °F 42.8 °F 93% 30.13 in 1.8 mi ENE 11.5 mph - N/A   Overcast
5:40 AM 44.6 °F 38.1 °F 42.8 °F 93% 30.14 in 0.8 mi ENE 13.8 mph - N/A   Overcast
5:54 AM 45.0 °F 40.1 °F 43.0 °F 93% 30.14 in 0.5 mi ENE 9.2 mph - N/A Fog Fog
6:06 AM 44.6 °F 38.8 °F 42.8 °F 93% 30.14 in 1.2 mi ENE 11.5 mph - N/A   Overcast
6:12 AM 44.6 °F 39.2 °F 42.8 °F 93% 30.14 in 2.0 mi ENE 10.4 mph - N/A   Overcast
6:20 AM 44.6 °F 39.2 °F 42.8 °F 93% 30.15 in 3.0 mi ENE 10.4 mph - N/A   Overcast
6:54 AM 45.0 °F 40.1 °F 43.0 °F 93% 30.16 in 3.0 mi East 9.2 mph - N/A   Overcast
7:12 AM 44.6 °F 40.2 °F 42.8 °F 93% 30.17 in 2.5 mi East 8.1 mph - N/A   Mostly Cloudy
7:21 AM 44.6 °F 39.7 °F 42.8 °F 93% 30.17 in 2.5 mi East 9.2 mph - N/A   Scattered Clouds
7:29 AM 44.6 °F 40.2 °F 42.8 °F 93% 30.16 in 3.0 mi ENE 8.1 mph - N/A   Partly Cloudy
7:54 AM 45.0 °F 41.2 °F 42.1 °F 90% 30.18 in 4.0 mi East 6.9 mph - N/A   Partly Cloudy
8:54 AM 48.0 °F - 39.9 °F 74% 30.21 in 7.0 mi East 13.8 mph - N/A   Partly Cloudy
9:54 AM 52.0 °F - 39.9 °F 63% 30.20 in 10.0 mi East 10.4 mph - N/A   Partly Cloudy
10:54 AM 55.0 °F - 39.9 °F 57% 30.17 in 10.0 mi East 10.4 mph - N/A   Scattered Clouds
11:54 AM 57.9 °F - 41.0 °F 53% 30.17 in 10.0 mi East 9.2 mph - N/A   Scattered Clouds
12:54 PM 60.1 °F - 41.0 °F 49% 30.16 in 10.0 mi East 4.6 mph - N/A   Overcast
1:54 PM 61.0 °F - 39.9 °F 46% 30.13 in 10.0 mi NE 4.6 mph - N/A   Overcast
2:54 PM 61.0 °F - 39.9 °F 46% 30.11 in 10.0 mi East 6.9 mph - N/A   Overcast
3:54 PM 62.1 °F - 39.9 °F 44% 30.09 in 10.0 mi East 8.1 mph - N/A   Overcast
4:54 PM 59.0 °F - 39.9 °F 49% 30.08 in 10.0 mi ENE 8.1 mph - N/A   Overcast
5:54 PM 57.0 °F - 39.0 °F 51% 30.08 in 10.0 mi ENE 9.2 mph - N/A   Overcast
6:54 PM 57.0 °F - 39.0 °F 51% 30.09 in 10.0 mi East 8.1 mph - N/A   Overcast
7:54 PM 55.0 °F - 39.0 °F 55% 30.09 in 10.0 mi ENE 6.9 mph - N/A   Overcast
8:54 PM 53.1 °F - 39.0 °F 59% 30.08 in 10.0 mi East 6.9 mph - N/A   Overcast
9:54 PM 53.1 °F - 39.0 °F 59% 30.06 in 10.0 mi East 6.9 mph - N/A   Overcast
10:54 PM 54.0 °F - 37.0 °F 53% 30.05 in 10.0 mi East 8.1 mph - N/A   Overcast
11:54 PM 54.0 °F - 37.0 °F 53% 30.05 in 10.0 mi East 8.1 mph - N/A   Mostly Cloudy